Wind_Speed
41 41 41 42 42 43 44 43 44 44 45 45 46 47 48 49 50 51 52 52 52 51 51 52 48 44 45 47 48 50 52 51 50 49 50 50 50 51 52 53 56 59
43 43 44 44 45 46 45 44 45 45 44 45 47 48 49 50 51 52 53 53 53 52 52 52 48 44 46 48 50 52 53 52 50 49 50 50 50 51 52 53 55 58
46 46 46 46 47 46 44 45 47 45 44 46 48 49 50 51 52 53 54 54 54 53 54 53 48 45 47 50 52 55 54 52 50 49 50 51 52 53 53 53 54 56
48 48 48 48 48 47 46 49 48 44 45 49 50 50 51 52 54 54 55 55 54 55 55 52 48 46 47 51 55 56 55 53 51 50 51 52 53 54 54 54 55 57
50 49 49 50 50 48 48 50 49 47 49 52 52 52 53 55 55 56 56 55 55 56 54 51 49 47 48 52 56 58 56 54 54 52 52 54 56 56 55 55 55 58
50 51 52 52 50 49 50 53 53 51 53 55 54 54 56 56 56 57 58 57 57 55 51 49 49 48 48 53 57 58 57 56 55 54 54 56 58 58 56 55 56 58
51 52 53 53 51 51 53 55 55 54 56 57 56 56 57 57 57 59 60 58 55 50 48 48 49 48 50 54 59 59 58 59 58 56 56 57 59 59 58 57 58 59
51 52 53 53 53 54 55 56 56 56 57 58 58 57 56 55 56 59 59 55 51 47 46 48 48 48 50 55 59 59 60 61 60 57 56 58 59 60 59 59 60 61
52 53 55 55 56 56 56 57 57 57 59 60 58 55 52 52 55 59 58 53 49 48 48 48 49 49 51 55 58 59 61 62 60 57 56 58 60 61 60 60 62 63
54 55 57 58 57 57 58 59 59 60 61 59 55 52 50 49 55 61 60 54 51 50 49 50 51 52 54 57 60 62 63 63 62 60 60 61 62 62 61 62 64 65
56 58 59 58 57 57 57 57 56 58 58 56 54 53 50 51 58 62 59 55 53 52 51 51 53 55 57 60 63 65 66 66 65 64 64 65 65 64 64 65 66 68
60 62 60 56 55 55 52 51 52 54 55 56 57 56 52 55 62 63 59 57 54 51 51 53 54 57 60 63 65 67 67 68 69 68 68 68 68 68 68 68 69 72
61 58 52 49 51 51 48 49 51 52 55 57 58 57 57 61 65 62 59 58 55 52 53 54 55 59 64 66 67 68 69 71 72 72 72 72 71 71 71 72 74 77
53 48 46 50 51 51 50 52 55 55 56 58 57 59 63 66 65 61 57 57 56 56 57 57 58 63 68 69 69 69 71 73 75 76 76 75 73 74 76 77 80 82
45 46 52 56 56 55 55 57 60 58 56 57 58 62 65 65 63 61 60 59 58 59 60 60 62 66 70 71 69 71 74 77 79 79 79 78 77 78 81 84 86 87
47 50 54 57 58 58 58 60 61 58 56 58 60 61 61 60 60 60 60 60 62 63 63 62 64 68 72 72 72 75 78 80 81 81 81 81 81 83 86 89 91 91
49 53 55 56 59 61 60 60 59 57 58 59 57 55 57 59 61 61 59 60 63 64 63 63 65 70 73 74 76 79 81 81 82 82 82 83 84 86 91 94 96 97
47 53 55 56 59 59 57 57 56 56 56 55 53 54 57 60 62 63 62 62 62 61 61 64 68 72 75 77 79 81 82 82 82 82 82 83 85 89 95 98 100 102
42 47 49 52 53 52 54 57 58 56 55 53 52 53 56 59 64 66 65 64 63 63 64 68 72 75 77 79 81 82 82 82 82 82 82 83 87 93 98 101 103 104
43 49 51 52 52 53 57 60 59 58 56 53 53 55 59 65 68 70 69 67 67 67 69 72 75 77 79 80 81 82 82 83 83 83 82 84 91 99 102 103 104 105
46 52 55 58 59 61 62 61 61 63 60 56 56 59 64 68 70 71 70 70 69 70 73 77 79 79 79 80 81 83 84 85 85 84 84 89 97 103 104 104 104 105
47 52 55 58 62 65 66 67 67 66 63 60 60 62 64 66 68 69 71 71 72 74 77 79 80 79 80 81 84 85 86 86 86 86 88 94 101 104 103 103 106 107
49 54 56 57 61 66 68 67 63 61 62 62 62 63 65 67 69 72 74 75 76 78 79 79 80 81 82 84 85 86 86 87 87 89 93 99 102 101 101 104 107 106
50 54 57 58 59 59 60 60 59 59 60 61 63 66 69 72 73 76 77 79 80 80 80 80 81 83 84 84 85 87 88 90 91 94 97 99 99 99 100 103 104 102
53 55 59 60 61 62 61 61 62 62 63 66 69 72 74 75 77 79 82 84 84 83 82 82 82 83 84 85 87 90 93 93 94 95 95 95 96 98 99 99 98 97
61 61 61 62 66 68 63 55 56 62 68 72 73 74 76 79 81 83 85 85 84 82 81 81 82 83 86 89 92 94 93 92 92 92 92 94 96 97 96 95 94 95
Wind_Direction
313 313 313 314 314 315 315 316 317 317 317 317 317 317 317 318 318 319 319 320 322 322 322 323 322 323 326 326 325 327 328 327 327 332 336 337 340 343 343 343 341 340
312 313 313 313 314 314 313 314 316 316 315 316 315 316 317 316 316 317 318 320 321 320 320 322 321 321 325 326 325 326 326 325 324 328 332 333 336 339 340 341 340 340
312 313 313 314 315 315 311 312 315 315 314 315 316 316 315 315 315 317 318 320 320 319 319 321 320 319 323 326 326 326 325 323 322 325 329 330 332 335 336 338 338 338
313 313 314 315 315 314 311 311 314 313 313 316 316 315 315 315 316 317 319 320 320 319 319 320 319 318 321 325 326 326 324 323 322 323 325 327 329 331 333 334 335 335
313 314 314 315 315 313 312 314 315 312 312 315 315 315 316 316 316 317 319 320 319 319 319 319 318 317 318 322 325 326 325 324 323 321 322 324 326 328 330 331 331 333
314 315 315 316 314 313 314 315 314 311 311 313 314 315 316 316 316 318 319 319 319 319 319 318 318 315 315 319 324 326 325 325 323 321 320 322 324 325 327 327 328 329
314 315 316 315 314 313 313 314 313 311 310 311 312 314 316 316 316 319 320 320 319 318 318 317 316 314 314 318 323 324 324 324 323 321 320 322 323 324 325 325 325 326
314 314 315 314 313 312 312 312 311 309 309 310 311 313 315 316 318 321 322 321 319 318 317 316 315 314 315 318 321 322 322 323 323 321 321 322 324 325 324 322 323 324
313 313 313 312 312 311 311 311 310 309 308 309 310 313 315 317 321 324 323 320 318 316 314 314 315 314 315 317 318 319 320 322 321 320 321 322 325 326 325 322 321 322
312 312 312 312 311 310 310 309 308 308 307 308 311 314 315 318 323 326 324 320 317 314 312 312 313 314 314 315 316 317 318 319 319 318 319 322 325 327 326 323 322 321
313 313 313 312 310 309 309 309 310 310 309 310 314 316 316 318 322 324 323 320 315 312 309 310 312 312 312 313 314 315 316 317 317 317 318 321 325 327 326 324 323 322
315 315 313 312 310 308 310 314 314 311 310 310 312 313 313 316 320 321 320 318 313 309 308 309 311 312 312 312 312 313 314 316 316 316 317 321 324 326 325 324 322 321
318 315 309 306 307 306 306 309 308 306 308 308 309 309 309 313 318 320 319 317 312 309 308 307 309 312 313 312 312 312 313 315 316 316 316 319 322 324 324 322 321 322
319 313 301 296 299 300 299 301 303 304 307 308 307 306 306 312 317 318 317 315 313 310 308 304 305 309 312 312 310 310 312 315 316 316 316 317 320 321 321 321 321 322
308 301 294 291 293 296 296 298 302 305 306 306 304 304 307 313 316 314 311 311 311 310 307 303 302 305 309 309 309 310 313 315 316 315 314 314 315 317 318 319 321 321
293 290 288 287 290 295 297 299 301 302 302 303 302 303 307 310 311 310 307 306 306 306 305 302 302 304 307 308 309 311 313 316 315 313 312 312 312 314 316 318 319 320
288 285 285 286 289 295 298 299 299 298 300 303 302 301 302 303 305 306 304 302 302 303 303 302 302 304 307 309 310 312 314 315 313 312 311 310 311 313 315 316 317 317
290 288 289 289 291 295 296 295 295 296 300 303 300 297 299 300 302 303 301 300 300 300 300 300 302 305 307 309 310 312 313 313 312 311 310 310 310 312 313 314 314 314
286 283 285 286 287 287 287 289 292 293 297 299 295 295 299 300 300 299 298 297 296 296 297 298 301 304 306 308 310 311 311 311 310 310 310 309 310 311 312 312 312 312
278 271 272 276 280 281 284 289 290 288 291 294 293 295 298 297 296 296 295 294 294 294 296 298 301 304 305 307 308 309 310 310 309 309 309 308 308 310 311 311 311 312
278 272 270 272 277 283 288 290 289 287 287 288 289 292 293 292 291 291 292 292 292 293 295 297 301 303 304 305 306 308 309 309 308 308 306 305 307 310 311 311 312 312
275 273 272 272 275 281 286 287 287 286 284 283 284 287 287 286 287 288 291 292 291 292 294 297 299 300 301 303 305 307 308 308 307 305 304 304 307 309 310 311 312 311
277 274 273 273 275 279 282 282 282 284 284 284 284 284 285 285 286 288 291 292 293 293 294 295 297 298 300 302 304 305 307 307 305 303 302 304 306 308 310 311 311 310
281 278 275 274 273 273 273 274 276 280 284 285 284 284 285 286 286 288 291 292 293 294 294 295 297 298 300 302 304 305 305 304 303 302 302 304 306 308 311 311 310 311
280 277 275 274 272 269 269 272 273 275 280 284 284 284 286 287 288 289 291 292 294 295 296 298 299 300 301 302 302 303 303 303 303 303 303 305 308 310 311 311 311 312
281 278 276 274 272 272 272 270 270 273 280 284 285 285 287 288 289 290 292 293 295 296 298 299 300 301 301 301 301 302 303 303 304 304 305 307 309 311 311 311 311 311
Height
10935 10934 10932 10930 10927 10925 10923 10921 10919 10916 10914 10911 10908 10905 10903 10901 10899 10897 10895 10892 10890 10887 10884 10881 10878 10875 10873 10871 10868 10864 10861 10858 10855 10853 10850 10847 10844 10842 10839 10837 10833 10830
10931 10930 10928 10926 10924 10922 10919 10917 10916 10914 10911 10908 10905 10903 10900 10898 10896 10893 10891 10889 10886 10883 10880 10877 10874 10872 10869 10866 10863 10860 10857 10854 10852 10849 10846 10842 10840 10837 10835 10833 10830 10826
10927 10925 10923 10921 10919 10917 10915 10913 10911 10909 10907 10905 10902 10899 10897 10894 10892 10889 10887 10884 10881 10878 10875 10872 10870 10868 10865 10862 10859 10856 10853 10850 10847 10845 10842 10838 10835 10832 10830 10827 10825 10822
10921 10920 10918 10916 10914 10912 10910 10908 10906 10904 10902 10899 10897 10895 10892 10890 10887 10884 10882 10879 10876 10872 10870 10867 10865 10863 10861 10858 10855 10852 10849 10846 10843 10840 10837 10834 10831 10827 10824 10821 10819 10816
10916 10914 10912 10910 10908 10906 10904 10902 10900 10898 10896 10894 10891 10888 10886 10884 10882 10879 10877 10874 10871 10867 10865 10862 10860 10858 10856 10854 10851 10848 10844 10841 10838 10835 10832 10829 10826 10823 10819 10816 10813 10810
10910 10908 10906 10904 10902 10900 10898 10895 10893 10891 10889 10887 10884 10882 10880 10878 10875 10873 10871 10869 10866 10863 10860 10858 10856 10854 10851 10849 10846 10843 10840 10837 10834 10831 10828 10825 10822 10818 10814 10811 10808 10804
10905 10902 10900 10898 10896 10894 10891 10889 10886 10884 10882 10879 10878 10877 10875 10872 10869 10867 10865 10863 10861 10859 10856 10853 10851 10849 10846 10843 10839 10836 10833 10831 10829 10826 10823 10820 10817 10813 10809 10805 10802 10798
10900 10897 10895 10892 10889 10887 10885 10882 10880 10877 10874 10872 10871 10870 10869 10866 10863 10861 10859 10857 10856 10854 10851 10849 10847 10844 10841 10838 10834 10831 10828 10825 10823 10820 10818 10815 10811 10808 10804 10799 10795 10791
10897 10893 10890 10887 10884 10881 10878 10876 10873 10871 10867 10865 10864 10864 10863 10860 10858 10855 10854 10852 10850 10848 10846 10844 10842 10839 10837 10833 10830 10827 10824 10821 10818 10815 10812 10809 10805 10802 10798 10793 10788 10784
10893 10889 10886 10882 10879 10876 10872 10870 10867 10864 10861 10859 10859 10858 10857 10855 10852 10850 10848 10846 10845 10842 10840 10838 10835 10833 10829 10826 10824 10821 10819 10816 10812 10809 10805 10802 10798 10794 10790 10786 10782 10778
10887 10883 10879 10876 10873 10870 10868 10865 10862 10859 10856 10854 10853 10853 10851 10849 10847 10845 10843 10841 10839 10836 10834 10831 10828 10825 10822 10819 10816 10813 10811 10808 10805 10801 10797 10793 10790 10786 10782 10778 10774 10770
10880 10875 10870 10868 10867 10865 10863 10860 10858 10855 10852 10850 10849 10847 10845 10843 10840 10838 10837 10835 10832 10829 10827 10825 10822 10818 10815 10812 10809 10806 10803 10800 10797 10793 10789 10785 10781 10777 10774 10770 10767 10763
10876 10870 10864 10862 10862 10861 10859 10856 10854 10852 10848 10846 10844 10841 10839 10836 10833 10830 10829 10827 10825 10823 10820 10818 10815 10812 10809 10806 10803 10800 10796 10792 10789 10785 10781 10777 10773 10769 10766 10763 10759 10756
10874 10868 10860 10856 10856 10856 10855 10852 10849 10848 10845 10841 10838 10835 10833 10830 10827 10823 10821 10819 10817 10816 10814 10811 10808 10806 10803 10800 10796 10793 10789 10785 10781 10777 10773 10769 10766 10762 10759 10755 10752 10748
10873 10866 10855 10850 10850 10850 10850 10847 10844 10842 10840 10837 10833 10829 10826 10824 10822 10818 10815 10812 10810 10809 10807 10805 10802 10799 10797 10794 10790 10786 10782 10778 10773 10770 10766 10762 10758 10755 10751 10747 10743 10739
10870 10862 10852 10846 10845 10845 10844 10842 10839 10837 10835 10832 10828 10824 10822 10819 10816 10814 10810 10807 10805 10802 10800 10798 10795 10792 10789 10785 10783 10779 10775 10771 10767 10763 10759 10755 10751 10747 10742 10738 10734 10730
10863 10856 10850 10845 10842 10840 10839 10836 10833 10831 10828 10826 10822 10818 10816 10813 10810 10808 10805 10802 10800 10797 10794 10792 10789 10785 10781 10777 10774 10772 10768 10765 10761 10757 10753 10748 10744 10739 10734 10728 10724 10720
10859 10851 10848 10842 10836 10835 10833 10829 10826 10824 10821 10819 10815 10811 10809 10806 10804 10801 10798 10796 10793 10791 10788 10785 10781 10778 10774 10770 10767 10764 10762 10758 10753 10749 10745 10741 10736 10732 10726 10720 10714 10710
10857 10850 10844 10835 10828 10827 10824 10820 10817 10815 10814 10812 10808 10804 10802 10799 10797 10794 10792 10790 10787 10784 10781 10777 10773 10770 10767 10763 10760 10757 10755 10752 10746 10741 10737 10733 10728 10724 10719 10712 10705 10700
10851 10843 10835 10826 10821 10820 10817 10814 10810 10807 10807 10804 10800 10797 10796 10792 10790 10789 10786 10784 10781 10777 10774 10769 10766 10763 10759 10756 10753 10750 10747 10744 10739 10735 10730 10725 10720 10715 10709 10702 10695 10689
10844 10835 10828 10822 10817 10814 10810 10807 10803 10800 10799 10796 10792 10791 10789 10786 10785 10783 10780 10777 10774 10771 10767 10762 10758 10755 10752 10749 10746 10742 10739 10735 10731 10728 10724 10718 10712 10706 10699 10691 10683 10678
10835 10827 10823 10819 10813 10808 10803 10799 10796 10793 10790 10787 10786 10785 10782 10780 10778 10775 10772 10769 10767 10764 10761 10756 10751 10748 10745 10742 10739 10735 10732 10728 10724 10720 10716 10711 10704 10698 10690 10682 10673 10667
10828 10820 10816 10814 10807 10800 10795 10791 10789 10787 10783 10780 10779 10777 10775 10772 10769 10767 10764 10761 10758 10756 10753 10749 10744 10740 10738 10735 10731 10728 10725 10722 10717 10713 10708 10703 10697 10690 10682 10672 10661 10656
10821 10813 10807 10805 10800 10792 10788 10786 10784 10781 10777 10775 10772 10769 10766 10763 10760 10758 10755 10752 10750 10747 10743 10740 10737 10733 10730 10727 10723 10720 10718 10715 10710 10705 10699 10694 10688 10682 10675 10665 10652 10644
10809 10804 10799 10796 10791 10786 10783 10781 10777 10774 10771 10768 10764 10760 10757 10754 10751 10749 10747 10745 10743 10740 10736 10733 10729 10725 10721 10718 10715 10712 10709 10706 10700 10694 10689 10684 10679 10673 10667 10659 10648 10640
10796 10794 10791 10788 10784 10781 10780 10776 10770 10767 10764 10760 10755 10752 10748 10745 10743 10742 10739 10736 10734 10732 10729 10725 10722 10717 10713 10709 10706 10703 10700 10697 10691 10683 10678 10674 10670 10665 10659 10651 10642 10635